STARLINK-30129, 56689

Orbit data source: Space-Track

STARLINK-30129, 56689 is a payload satellite owned by SpaceX/Seattle (US) in LEO that was launched on Fri, 19 May 2023 UTC via an FALCON 9 launch vehicle from the Air Force Eastern Test Range (AFETR). Payload-class satellites include a variety of spacecraft equipped with specific instruments for various scientific and technological missions. These include communications satellites like Starlink; space stations such as the ISS; scientific satellites like the Hubble; Earth observation satellites from companies like Planet Labs, Umbra, and HawkEye 360; GPS; miniature CubeSats for education and research; and military/defense satellites.

Loading next visibility...
Identifier
56689, 2023-067B
Orbit
LEO
Country
Flag of USUS
Related business
Manufacturer
SpaceX/Seattle
Mission
Operational Commercial Communications
Bus & Motor
STARLINK V2M, Unknown motor
Mass
730 kg wet, ~700 kg dry
Launch date (UTC)
2023-05-19 (3 years ago)
Launch vehicle
FALCON 9
Launch site
Air Force Eastern Test Range (AFETR)
Object type
Payload
Rocket body
Debris
Shape & HBR
Box + 2 Pan, 17.7 m
Radar Cross Section
33.884 m², Large (>1 m²)

Expand to show TLE details & history
Last TLE update: 2 days ago

TLE from 2 days ago
0 STARLINK-30129
1 56689U 23067B   26171.10677495  .00001185  00000-0  52577-4 0  9993
2 56689  43.0022  62.8401 0001006 312.3713  47.7053 15.27579901171242
Epoch: 2026-06-20T02:33Z
TLE epoch observation values (Epoch: 2026-06-20T02:33:45.355Z)
Latitude
-0.00006°
Longitude
116.07491°
Altitude
482.361 km
Speed
7.626 km/s
True Right ascension
04h 11m 21s
True Declination
0° 00' 00"
Sunlit
Object was in daylight at epoch
Visualization orbit readout
Latitude
Unknown
Longitude
Unknown
Altitude
Unknown
Speed
Unknown
Apparent Right ascension
Unknown
Apparent Declination
Unknown
Sunlit
N/A
Visualization observer readout
Local Sidereal Time
21:31:01
Azimuth
Unknown
Elevation
Unknown
Doppler factor
Unknown
Orbital elements
Apogee altitude
485.685 km
Perigee altitude
484.304 km
Semi-major axis
6,863.131 km
Eccentricity
0.0001
Inclination
43.0022°
RAAN
62.8401°
Arg. of periapsis
312.3713°
True anomaly
47.71383°
Mean anomaly
47.7053°
Eccentric anomaly
47.70956°
Mean motion
3.81733 °/min
Orbital period
94.31 mins
BSTAR
0.000052577
Loading maneuver chart data...
Computing Atmospheric mass density...
Loading historical data...
Loading historical data...
Loading historical data...
Loading historical data...
Loading historical data...
Loading historical data...
Loading historical data...

Documentation

Showing up to 5 results
|